sat.trackr.live / text

‹ back to catalog

STARLINK-32430

NORAD 62207 · 2024-229R

PAYLOAD ACTIVE UNKNOWN

§ Identity

Operator
Country
US
Launch date
2024-12-04
Launch site
AFETR
Launch vehicle
Mass (kg)
RCS (m²)

Purposes: comms

External: N2YO · Heavens-Above · Gunter

§ Orbital elements

Epoch: 2026-05-25T03:41:57.583680Z

Period
94.27 min
Inclination
42.9985°
Eccentricity
0.0001423
Mean motion
15.27587021 rev/d
Perigee alt
482.1 km
Apogee alt
484.0 km
Semi-major
6,861.2 km
B*
4.6193e-4
RAAN
195.5960°
Arg perigee
273.8505°
Mean anomaly
86.2184°
Rev number
8,229

§ Raw data

STARLINK-324301 62207U 24229R   26145.15413870  .00012474  00000+0  46193-3 0  99962 62207  42.9985 195.5960 0001423 273.8505  86.2184 15.27587021 82299

JSON: /api/v1/satellites/62207 · /tle

For live sub-satellite position, see the globe view (requires WebGL).

§ Visibility from observer

Set your observer location to see the next 7 days of passes ≥ 10°. The values pass through the URL so the page stays shareable.

No JS? Fill the form by hand. The geolocation button needs JavaScript.